Location: Alladorf
(49.9620°N, 11.3790°E)
Time: 21:31:51
(UTC+00:00)

ATLAS 2AS CENTAUR R/B - Pass Details

Date: 29 November 2020
Orbit: 943 x 1268 km, 63.7° (Epoch: 22 January)

Event Time Altitude Azimuth Distance (km) Brightness Sun altitude
Exits shadow 04:15:38 15° 218° (SW) 2,872 4.6 -23.8°
Maximum altitude 04:22:28 86° 130° (SE) 1,273 3.0 -22.7°
Drops below altitude 10° 04:30:19 10° 43° (NE) 3,205 5.6 -21.5°
Sets 04:33:03 0° 43° (NE) 4,142 6.3 -21.0°
